{"data":{"norad_id":66188,"intl_designator":"2025-243M","name":"STARLINK-35041","alt_names":[],"object_type":"PAYLOAD","status":"ACTIVE","operator":null,"country":"US","launch_date":"2025-10-26","launch_site_code":"AFETR","launch_vehicle":null,"mission":null,"orbit_class":"UNKNOWN","rcs_meters":null,"size_class":null,"mass_kg":null,"dimensions":null,"purposes":["comms"],"wikipedia_slug":null,"has_3d_model":false,"image_url":null,"decayed_at":null,"tle_current":{"epoch":"2026-05-24T17:21:02.122272Z","epoch_age_seconds":99759,"freshness":"FRESH","line1":"1 66188U 25243M   26144.72294123  .00020191  00000+0  69202-3 0  9996","line2":"2 66188  53.1581 252.1706 0000952  72.4316 287.6789 15.30198081 32295","mean_motion":15.30198081,"eccentricity":9.52e-5,"inclination_deg":53.1581,"raan_deg":252.1706,"arg_perigee_deg":72.4316,"mean_anomaly_deg":287.6789,"bstar":0.00069202,"rev_number":3229,"period_min":94.105463722641,"perigee_km":474.56835955093,"apogee_km":475.8732388759,"semimajor_km":6853.3577992134,"source":"CELESTRAK","updated_at":"2026-05-25T13:38:21.077745Z"}}}